Location: Overspoor
(51.4747°N, 5.6641°E)
Time: 02:22:18
(UTC+02:00)

UKube-1 - Visible Passes

Search period start: 28 June 2022 00:00
Search period end: 08 July 2022 00:00
Orbit: 610 x 614 km, 98.4° (Epoch: 27 June)

Date Brightness Start Highest point End Pass type
(mag) Time Alt. Az. Time Alt. Az. Time Alt. Az.
28 Jun ? 00:45:10 10° N 00:48:57 31° WNW 00:52:43 10° SW visible
28 Jun ? 23:23:49 10° NNE 23:28:01 48° E 23:31:58 11° S visible
29 Jun ? 01:00:13 10° N 01:03:40 24° WNW 01:07:05 10° WSW visible
29 Jun ? 23:38:34 10° NNE 23:42:53 67° ESE 23:46:56 11° S visible
30 Jun ? 01:15:22 10° NNW 01:18:21 18° WNW 01:21:18 10° WSW visible
30 Jun ? 23:53:22 10° NNE 23:57:42 89° WNW 00:01:54 11° SSW visible
01 Jul ? 01:30:40 10° NNW 01:32:59 14° NW 01:35:18 10° W visible
02 Jul ? 00:08:14 10° N 00:12:31 66° WNW 00:16:46 10° SSW visible
02 Jul ? 01:46:21 10° NW 01:47:36 11° NW 01:48:50 10° WNW visible
02 Jul ? 22:47:45 10° NE 22:51:08 22° E 22:54:31 10° SE visible
03 Jul ? 00:23:08 10° N 00:27:17 48° WNW 00:31:25 10° SW visible
03 Jul ? 23:02:16 10° NE 23:06:04 30° E 23:09:45 10° SSE visible
04 Jul ? 00:38:04 10° N 00:42:01 36° WNW 00:45:57 10° SW visible
04 Jul ? 23:16:53 10° NNE 23:20:58 40° E 23:24:42 12° SSE visible
05 Jul ? 00:53:04 10° N 00:56:44 27° WNW 01:00:22 10° WSW visible
05 Jul ? 23:31:35 10° NNE 23:35:50 55° E 23:39:38 12° S visible
06 Jul ? 01:08:09 10° N 01:11:24 21° WNW 01:14:39 10° WSW visible
06 Jul ? 23:46:20 10° NNE 23:50:40 76° ESE 23:54:34 12° S visible
07 Jul ? 01:23:20 10° NNW 01:26:03 17° WNW 01:28:46 10° W visible
